Noatak, AK

2:28 PM AKDT on March 28, 2017 (GMT -0800)
Noatak

Weather History for PAWN - February, 2013

Change the Weather History Date:

Monday, February 11, 2013

  Actual Average Record
Temperature  
Mean Temperature -5 °F -  
Max Temperature 10 °F 7 °F 32 °F (2004)
Min Temperature -20 °F -2 °F -41 °F (2009)
Degree Days  
Heating Degree Days 70    
Moisture  
Dew Point -14 °F    
Average Humidity 73    
Maximum Humidity 100    
Minimum Humidity 53    
Precipitation  
Precipitation 0.00 in - - ()
Sea Level Pressure  
Sea Level Pressure 29.66 in    
Wind  
Wind Speed 11 mph (NE)    
Max Wind Speed 18 mph    
Max Gust Speed 25 mph    
Visibility 9 miles    
Events      
Averages and records for this station are not official NWS values.
T = Trace of Precipitation, MM = Missing Value Source: NWS Daily Summary

Daily Weather History Graph

Daily Weather History Graph

Search for Another Location

Airport or City:

Trip Planner

Search our weather history database for the weather conditions in past years. The results will help you decide how hot, cold, wet, or windy it might be!

Date:

Astronomy

Feb. 11, 2013 Rise Set
Actual Time 10:20 AM AKST 5:52 PM AKST
Civil Twilight 9:18 AM AKST 6:54 PM AKST
Nautical Twilight 8:13 AM AKST 7:59 PM AKST
Astronomical Twilight 7:11 AM AKST 9:03 PM AKST
Moon 9:37 AM AKST (2/11) 9:31 PM AKST (2/11)
Length of Visible Light 9h 35m
Length of Day
7h 32m
Waxing Crescent, 3% of the Moon is Illuminated
Feb 11
Waxing Crescent
Feb 17
First Quarter
Feb 25
Full
Mar 4
Last Quarter
Mar 11
New

Hourly Weather History & Observations

Time (AKST) Temp. Windchill Dew Point Humidity Pressure Visibility Wind Dir Wind Speed Gust Speed Precip Events Conditions
12:16 AM 10.4 °F -7.7 °F 3.2 °F 73% 29.37 in 4.0 mi ESE 18.4 mph 24.2 mph N/A   Overcast
12:36 AM 10.4 °F -6.6 °F 3.2 °F 73% 29.39 in 3.0 mi ESE 16.1 mph 25.3 mph N/A   Overcast
12:56 AM 8.6 °F -9.5 °F 3.2 °F 79% 29.40 in 1.5 mi SE 17.3 mph 24.2 mph N/A   Overcast
1:16 AM 8.6 °F -8.9 °F 3.2 °F 79% 29.42 in 1.2 mi SE 16.1 mph - N/A   Overcast
1:36 AM 8.6 °F -8.9 °F 3.2 °F 79% 29.44 in 2.0 mi SE 16.1 mph - N/A   Overcast
1:56 AM 6.8 °F -12.4 °F 3.2 °F 85% 29.45 in 2.0 mi SE 18.4 mph 23.0 mph N/A   Overcast
2:16 AM 6.8 °F -12.4 °F 1.4 °F 79% 29.47 in 2.5 mi SE 18.4 mph 24.2 mph N/A   Overcast
2:36 AM 6.8 °F -10.0 °F 1.4 °F 79% 29.49 in 5.0 mi SE 13.8 mph 17.3 mph N/A   Overcast
2:56 AM 5.0 °F -12.3 °F -0.4 °F 78% 29.51 in 4.0 mi SE 13.8 mph 23.0 mph N/A   Overcast
3:16 AM 3.2 °F -15.9 °F -0.4 °F 85% 29.52 in 5.0 mi SE 16.1 mph 21.9 mph N/A   Overcast
3:36 AM 3.2 °F -15.9 °F -0.4 °F 85% 29.53 in 5.0 mi SSE 16.1 mph 21.9 mph N/A   Overcast
3:56 AM 3.2 °F -15.3 °F -2.2 °F 78% 29.54 in 6.0 mi SSE 15.0 mph 20.7 mph N/A   Overcast
4:16 AM 1.4 °F -18.2 °F -2.2 °F 85% 29.55 in 9.0 mi SSE 16.1 mph 23.0 mph N/A   Overcast
4:36 AM 1.4 °F -15.3 °F -4.0 °F 78% 29.56 in 8.0 mi SSE 11.5 mph 17.3 mph N/A   Overcast
4:56 AM 1.4 °F -18.2 °F -2.2 °F 85% 29.56 in 8.0 mi SSE 16.1 mph 21.9 mph N/A   Overcast
5:16 AM 1.4 °F -16.1 °F -5.8 °F 72% 29.58 in 9.0 mi SE 12.7 mph 18.4 mph N/A   Overcast
5:36 AM -0.4 °F -19.2 °F -5.8 °F 78% 29.59 in 10.0 mi SE 13.8 mph 18.4 mph N/A   Overcast
5:56 AM -0.4 °F -18.4 °F -5.8 °F 78% 29.60 in 10.0 mi SE 12.7 mph - N/A   Overcast
6:16 AM -0.4 °F -15.7 °F -7.6 °F 72% 29.61 in 10.0 mi SE 9.2 mph - N/A   Overcast
6:36 AM -0.4 °F -14.7 °F -7.6 °F 72% 29.62 in 10.0 mi SE 8.1 mph - N/A   Overcast
6:56 AM -2.2 °F -18.9 °F -7.6 °F 78% 29.62 in 10.0 mi SSE 10.4 mph - N/A   Scattered Clouds
7:16 AM -4.0 °F -19.0 °F -11.2 °F 71% 29.64 in 10.0 mi SE 8.1 mph - N/A   Clear
7:36 AM -5.8 °F -19.9 °F -11.2 °F 77% 29.64 in 10.0 mi SE 6.9 mph - N/A   Clear
7:56 AM -5.8 °F -19.9 °F -11.2 °F 77% 29.65 in 10.0 mi SE 6.9 mph - N/A   Clear
8:16 AM -5.8 °F -18.4 °F -9.4 °F 84% 29.66 in 10.0 mi SSE 5.8 mph - N/A   Clear
8:36 AM -5.8 °F -14.5 °F -11.2 °F 77% 29.67 in 6.0 mi SSE 3.5 mph - N/A   Mostly Cloudy
8:56 AM -7.6 °F - -14.8 °F 71% 29.68 in 9.0 mi Calm Calm - N/A   Mostly Cloudy
9:16 AM -9.4 °F - -16.6 °F 71% 29.69 in 10.0 mi Calm Calm - N/A   Scattered Clouds
9:36 AM -9.4 °F -18.6 °F -16.6 °F 71% 29.69 in 10.0 mi West 3.5 mph - N/A   Mostly Cloudy
9:56 AM -9.4 °F -22.7 °F -14.8 °F 77% 29.70 in 10.0 mi WSW 5.8 mph - N/A   Mostly Cloudy
10:16 AM -9.4 °F -24.3 °F -16.6 °F 71% 29.70 in 10.0 mi SW 6.9 mph - N/A   Clear
10:36 AM -11.2 °F -23.0 °F -14.8 °F 84% 29.70 in 10.0 mi SSW 4.6 mph - N/A   Clear
10:56 AM -11.2 °F - -20.2 °F 64% 29.71 in 10.0 mi Calm Calm - N/A   Clear
11:16 AM -11.2 °F -23.0 °F -11.2 °F 100% 29.72 in 10.0 mi WSW 4.6 mph - N/A   Clear
11:36 AM -9.4 °F -22.7 °F -16.6 °F 71% 29.72 in 10.0 mi South 5.8 mph - N/A   Clear
11:56 AM -11.2 °F - -18.4 °F 70% 29.73 in 10.0 mi Calm Calm - N/A   Clear
12:16 PM -11.2 °F -23.0 °F -22.0 °F 59% 29.74 in 8.0 mi WNW 4.6 mph - N/A   Clear
12:36 PM -11.2 °F -24.8 °F -22.0 °F 59% 29.74 in 10.0 mi WNW 5.8 mph - N/A   Clear
12:56 PM -16.6 °F -31.3 °F -25.6 °F 64% 29.74 in 10.0 mi NW 5.8 mph - N/A   Clear
1:56 PM -14.8 °F -29.1 °F -23.8 °F 64% 29.75 in 10.0 mi NNW 5.8 mph - N/A   Clear
2:16 PM -9.4 °F -20.9 °F -16.6 °F 71% 29.75 in 10.0 mi NNW 4.6 mph - N/A   Clear
2:36 PM -9.4 °F -18.6 °F -16.6 °F 71% 29.75 in 10.0 mi NNW 3.5 mph - N/A   Clear
2:56 PM -9.4 °F -18.6 °F -18.4 °F 65% 29.76 in 10.0 mi NNW 3.5 mph - N/A   Unknown
3:16 PM -14.8 °F -30.8 °F -25.6 °F 58% 29.76 in 10.0 mi NNW 6.9 mph - N/A   Clear
3:36 PM -11.2 °F -23.0 °F -23.8 °F 54% 29.76 in 10.0 mi North 4.6 mph - N/A   Clear
3:56 PM - - - N/A% 29.75 in 10.0 mi North 4.6 mph - N/A   Clear
4:16 PM -13.0 °F -25.1 °F -23.8 °F 59% 29.76 in 10.0 mi North 4.6 mph - N/A   Clear
4:36 PM -13.0 °F -27.0 °F -16.6 °F 84% 29.76 in 10.0 mi North 5.8 mph - N/A   Clear
4:56 PM -14.8 °F -24.8 °F -25.6 °F 58% 29.76 in 10.0 mi North 3.5 mph - N/A   Clear
5:16 PM -14.8 °F -27.2 °F -18.4 °F 84% 29.75 in 10.0 mi North 4.6 mph - N/A   Clear
5:36 PM -16.6 °F -32.9 °F -29.2 °F 53% 29.74 in 10.0 mi NNW 6.9 mph - N/A   Clear
5:56 PM -18.4 °F -36.6 °F -27.4 °F 63% 29.74 in 10.0 mi NNW 8.1 mph - N/A   Partly Cloudy
6:16 PM -18.4 °F -28.9 °F -25.6 °F 70% 29.74 in 10.0 mi North 3.5 mph - N/A   Partly Cloudy
6:36 PM -18.4 °F -35.1 °F -23.8 °F 76% 29.74 in 10.0 mi North 6.9 mph - N/A   Clear
6:56 PM -18.4 °F -31.4 °F - N/A% 29.74 in 10.0 mi NNE 4.6 mph - N/A   Partly Cloudy
7:16 PM -20.2 °F -33.5 °F -27.4 °F 69% 29.75 in 10.0 mi North 4.6 mph - N/A   Mostly Cloudy
7:36 PM -18.4 °F -36.6 °F -25.6 °F 70% 29.74 in 10.0 mi NNW 8.1 mph - N/A   Mostly Cloudy
7:56 PM -18.4 °F -36.6 °F -29.2 °F 58% 29.74 in 10.0 mi NNW 8.1 mph - N/A   Mostly Cloudy
8:16 PM -18.4 °F -36.6 °F -25.6 °F 70% 29.74 in 9.0 mi NNW 8.1 mph - N/A   Mostly Cloudy
8:36 PM -18.4 °F -36.6 °F -29.2 °F 58% 29.74 in 10.0 mi NNW 8.1 mph - N/A   Clear
8:56 PM -18.4 °F -36.6 °F -25.6 °F 70% 29.74 in 10.0 mi North 8.1 mph - N/A   Partly Cloudy
9:16 PM -18.4 °F -36.6 °F -25.6 °F 70% 29.73 in 8.0 mi NNW 8.1 mph - N/A   Mostly Cloudy
9:36 PM -16.6 °F -35.7 °F -23.8 °F 70% 29.73 in 10.0 mi North 9.2 mph - N/A   Overcast
9:56 PM -9.4 °F -24.3 °F -11.2 °F 92% 29.73 in 10.0 mi North 6.9 mph - N/A   Overcast
10:16 PM -9.4 °F -22.7 °F -20.2 °F 59% 29.73 in 10.0 mi North 5.8 mph - N/A   Overcast
10:36 PM -9.4 °F -25.6 °F -16.6 °F 71% 29.73 in 10.0 mi NNE 8.1 mph - N/A   Overcast
10:56 PM -9.4 °F -22.7 °F -16.6 °F 71% 29.73 in 10.0 mi NE 5.8 mph - N/A   Overcast
11:16 PM -11.2 °F -24.8 °F -20.2 °F 64% 29.73 in 10.0 mi NE 5.8 mph - N/A   Overcast
11:36 PM -9.4 °F -25.6 °F -14.8 °F 77% 29.73 in 10.0 mi NNE 8.1 mph - N/A   Mostly Cloudy
11:56 PM -9.4 °F -24.3 °F -18.4 °F 65% 29.73 in 10.0 mi NNE 6.9 mph - N/A   Mostly Cloudy